EST,Max TemperatureF,Mean TemperatureF,Min TemperatureF,Max Dew PointF,MeanDew PointF,Min DewpointF,Max Humidity, Mean Humidity, Min Humidity, Max Sea Level PressureIn, Mean Sea Level PressureIn, Min Sea Level PressureIn, Max VisibilityMiles, Mean VisibilityMiles, Min VisibilityMiles, Max Wind SpeedMPH, Mean Wind SpeedMPH, Max Gust SpeedMPH,PrecipitationIn, CloudCover, Events, WindDirDegrees
2013-1-1,38,27,15,25,16,6,64,52,40,30.00,29.89,29.82,10,10,10,17,8,24,0.00,5,,280
2013-1-2,31,18,5,15,9,-1,83,65,47,30.17,30.04,29.98,10,10,9,15,4,20,0.00,3,,268
2013-1-3,23,13,3,10,1,-7,68,56,44,30.23,30.14,30.03,10,10,9,12,2,14,0.00,2,,351
2013-1-4,37,27,17,22,18,11,78,57,45,30.03,29.97,29.89,10,10,10,15,6,22,0.00,4,,232
2013-1-5,41,31,20,21,19,16,84,63,41,30.25,30.15,29.97,10,10,9,17,6,22,0.00,3,,275
2013-1-6,43,34,24,26,24,20,92,71,49,30.20,30.06,29.94,10,8,1,10,4,14,T,5,Snow,219
2013-1-7,40,30,19,27,22,16,81,63,44,30.38,30.26,30.03,10,10,9,14,3,18,0.00,2,,348
2013-1-8,46,31,16,26,20,12,92,67,42,30.39,30.34,30.30,10,9,6,13,3,18,0.00,0,,201
2013-1-9,42,31,19,32,24,15,88,72,55,30.37,30.25,30.10,9,6,4,12,2,16,T,2,,203
2013-1-10,47,36,25,24,21,20,81,58,34,30.55,30.42,30.19,10,10,10,20,5,29,0.00,0,,318
2013-1-11,38,31,23,34,30,19,100,80,59,30.53,30.27,30.13,10,5,0,7,1,14,0.25,6,Fog-Rain,306
2013-1-12,43,39,34,41,37,33,100,95,89,30.16,30.13,30.09,7,1,0,7,1,10,T,8,Fog,185
2013-1-13,46,41,36,43,39,36,100,95,89,30.14,30.07,29.98,4,1,0,7,1,10,0.00,8,Fog,164
2013-1-14,51,44,36,46,38,23,100,77,54,30.31,30.03,29.84,10,5,0,17,5,22,0.05,6,Fog-Rain,70
2013-1-15,38,35,31,26,22,20,70,61,52,30.34,30.28,30.23,10,10,10,9,4,14,0.01,3,Rain,16
2013-1-16,34,32,29,30,28,20,92,74,56,30.22,29.99,29.85,10,4,0,9,3,13,0.36,7,Fog-Rain-Snow,342
2013-1-17,41,34,27,30,24,10,89,68,46,30.11,30.01,29.90,10,10,10,15,7,20,0.00,3,,290
2013-1-18,27,23,18,9,5,0,56,45,33,30.44,30.33,30.06,10,10,10,20,7,24,T,3,,344
2013-1-19,47,37,27,27,18,8,78,56,34,30.33,30.12,29.88,10,10,10,20,4,28,0.00,2,,178
2013-1-20,50,38,26,26,19,5,84,55,26,30.03,29.79,29.63,10,10,10,24,9,36,0.00,1,,250
2013-1-21,30,25,19,20,12,4,84,61,37,30.07,29.95,29.81,10,9,2,17,4,25,T,4,Snow,237
2013-1-22,24,18,11,12,-3,-9,84,56,28,30.17,30.00,29.80,10,10,9,25,13,32,T,2,,275
2013-1-23,20,13,5,-1,-5,-8,69,50,31,30.22,30.17,30.14,10,10,9,18,9,24,0.00,2,,272
2013-1-24,23,13,2,0,-4,-7,86,59,31,30.36,30.25,30.15,10,10,10,24,8,35,0.00,0,,297
2013-1-25,23,15,6,14,5,-2,80,60,39,30.39,30.23,30.06,10,8,2,12,1,14,T,4,Snow,23
2013-1-26,27,19,10,12,6,2,83,60,36,30.36,30.15,30.05,10,10,7,17,6,23,0.00,1,,340
2013-1-27,34,20,5,11,5,0,83,56,28,30.51,30.45,30.35,10,10,10,7,0,9,0.00,0,,10
2013-1-28,33,24,15,31,24,9,89,75,60,30.48,30.15,29.98,10,4,0,9,1,14,0.12,7,Fog-Rain-Snow,161
2013-1-29,48,41,33,37,33,30,96,79,61,30.13,30.08,29.98,10,4,1,13,2,18,0.01,8,Rain,140
2013-1-30,58,47,35,52,44,34,100,90,80,30.08,29.70,29.33,10,3,0,15,4,23,0.31,8,Fog-Rain,162
2013-1-31,62,46,29,56,37,7,93,60,27,29.71,29.28,28.98,10,7,0,30,16,46,0.94,6,Fog-Rain,238